{"data":{"norad_id":57044,"epoch":"2026-05-25T03:59:23.294112Z","epoch_age_seconds":63901,"freshness":"FRESH","line1":"1 57044U 23085AS  26145.16624183  .00016267  00000+0  46756-3 0  9999","line2":"2 57044  97.4893 258.2286 0008045 155.8918 204.2703 15.35864391163316","mean_motion":15.35864391,"eccentricity":0.0008045,"inclination_deg":97.4893,"raan_deg":258.2286,"arg_perigee_deg":155.8918,"mean_anomaly_deg":204.2703,"bstar":0.00046756,"rev_number":16331,"period_min":93.758277647313,"perigee_km":452.85426300401,"apogee_km":463.85417737729,"semimajor_km":6836.4912201906,"source":"CELESTRAK","updated_at":"2026-05-25T13:37:59.821155Z"}}